Home > Weather > Ahmedabad > Past weeks

Flag for India Past Weather in Ahmedabad, Gujarat, India — Yesterday and Last 2 Weeks

Now
91 °F

Scattered clouds.


Feels Like: 103 °F
Forecast: 79 / 84 °F
Wind: 2 mph from North

Location: Ahmadabad Airport

Current Time: Jul 26, 2016 at 7:37:16 PM

Latest Report: Jul 26, 2016 at 7:00 PM


Visibility: 3 mi

Pressure: 29.59 "Hg

Humidity: 59%

Dew Point: 75 °F

Location of AhmedabadLocation

Past Weather in Ahmedabad — Graph

°F

Ahmedabad Temperature Yesterday

Maximum temperature yesterday: 90 °F (at 3:30 PM)
Minimum temperature yesterday: 82 °F (at 3:30 AM)
Average temperature yesterday: 86 °F

High & Low Weather Summary for the Past Weeks

 TemperatureHumidityPressure
High95 °F (Jul 22, 3:00 PM)100% (Jul 13, 1:00 AM)29.74 "Hg (Jul 13, 1:00 AM)
Low79 °F (Jul 12, 10:30 PM)47% (Jul 22, 5:30 PM)29.47 "Hg (Jul 11, 6:30 PM)
Average85 °F77%29.61 "Hg
* Reported Jul 11 6:30 PM — Jul 26 6:30 PM, Ahmedabad, Weather by CustomWeather, © 2016

Note: Actual official high and low records may vary slightly from our data, if they occured in-between our weather recording intervals... More about our weather records

Advertising

Ahmedabad Weather History for the Previous 24 Hours

Scroll right to see more
 ConditionsComfort  
Time TempWeatherWind HumidityBarometerVisibility
6:30 PM
Tue, Jul 26
91 °FScattered clouds.3 mph63%29.59 "Hg4 mi
6:00 PM91 °FPartly sunny.5 mph59%29.59 "Hg4 mi
5:30 PM91 °FPartly sunny.3 mph59%29.56 "Hg4 mi
5:00 PM93 °FBroken clouds.5 mph56%29.56 "Hg4 mi
4:30 PM93 °FBroken clouds.6 mph56%29.59 "Hg4 mi
3:30 PM91 °FScattered clouds.5 mph63%29.59 "Hg4 mi
3:00 PM93 °FPartly sunny.7 mph56%29.59 "Hg4 mi
2:30 PM91 °FPartly sunny.6 mph59%29.62 "Hg4 mi
2:00 PM90 °FPartly sunny.5 mph63%29.65 "Hg4 mi
1:30 PM90 °FPartly sunny.5 mph63%29.65 "Hg4 mi
1:00 PM88 °FBroken clouds.6 mph62%29.65 "Hg3 mi
12:30 PM88 °FBroken clouds.5 mph70%N/A3 mi
11:30 AM86 °FBroken clouds.5 mph70%29.71 "Hg3 mi
11:00 AM84 °FMore clouds than sun.5 mph74%29.71 "Hg3 mi
10:30 AM84 °FMore clouds than sun.5 mph79%29.71 "Hg3 mi
10:00 AM84 °FMore clouds than sun.6 mph79%29.71 "Hg2 mi
9:30 AM84 °FMore clouds than sun.3 mph84%29.68 "Hg2 mi
9:00 AM84 °FMore clouds than sun.5 mph84%29.68 "Hg2 mi
8:30 AM84 °FMore clouds than sun.3 mph79%29.68 "Hg2 mi
8:00 AM82 °FMore clouds than sun.2 mph84%29.68 "Hg2 mi
7:30 AM84 °FMore clouds than sun.No wind79%29.65 "Hg2 mi
7:00 AM84 °FMore clouds than sun.No wind79%29.65 "Hg2 mi
6:30 AM82 °FMostly cloudy.2 mph84%29.65 "Hg2 mi
6:00 AM84 °FDrizzle. Mostly cloudy.2 mph79%29.65 "Hg2 mi
5:30 AM84 °FDrizzle. Mostly cloudy.2 mph84%29.62 "Hg2 mi
5:00 AM84 °FDrizzle. Overcast.No wind79%29.62 "Hg2 mi
4:30 AM84 °FPassing clouds.2 mph79%29.62 "Hg2 mi
4:00 AM84 °FPassing clouds.2 mph79%29.62 "Hg2 mi
3:30 AM82 °FPartly cloudy.3 mph84%29.62 "Hg2 mi
3:00 AM82 °FPartly cloudy.3 mph84%29.62 "Hg2 mi
2:30 AM82 °FPartly cloudy.6 mph84%29.62 "Hg2 mi
2:00 AM84 °FPartly cloudy.5 mph79%29.62 "Hg2 mi
1:30 AM84 °FPartly cloudy.6 mph79%29.62 "Hg2 mi
1:00 AM84 °FPartly cloudy.5 mph79%29.62 "Hg2 mi
12:30 AM84 °FPartly cloudy.3 mph79%29.65 "Hg2 mi
12:00 AM84 °FPartly cloudy.3 mph79%29.65 "Hg2 mi
11:30 PM
Mon, Jul 25
84 °FPartly cloudy.2 mph79%29.65 "Hg2 mi
11:00 PM84 °FPartly cloudy.No wind79%29.65 "Hg2 mi
10:30 PM84 °FPartly cloudy.2 mph79%29.65 "Hg2 mi
10:00 PM84 °FPartly cloudy.3 mph79%29.65 "Hg2 mi
9:00 PM86 °FPassing clouds.2 mph75%29.62 "Hg2 mi
8:30 PM86 °FPassing clouds.3 mph75%29.62 "Hg2 mi
8:00 PM86 °FPassing clouds.3 mph75%29.62 "Hg2 mi
7:30 PM86 °FPartly sunny.5 mph75%29.62 "Hg2 mi
7:00 PM88 °FPartly sunny.6 mph70%29.59 "Hg3 mi
Weather by CustomWeather, © 2016

See weather overviewHow to use our weather pages